This is the latest recevied weather packets stored in our database for station/object KB8SSH. If no packets are shown the sender has not sent any weather packets the latest 10 day(s).
| Time | Temp. | Humidity | Pressure | Rain* | Wind** | Luminosity | Snow |
|---|---|---|---|---|---|---|---|
| 1777756980 | 8.89° C | 47% | 1050.6 hPa | 0 mm | - | 145 W/m² | - |
| 1777756676 | 9.44° C | 50% | 1050.2 hPa | 0 mm | - | 157 W/m² | - |
| 1777756372 | 8.89° C | 50% | 1050.2 hPa | 0 mm | - | 179 W/m² | - |
| 1777756069 | 9.44° C | 49% | 1050.2 hPa | 0 mm | - | 175 W/m² | - |
| 1777755767 | 9.44° C | 50% | 1050.2 hPa | 0 mm | - | 163 W/m² | - |
| 1777755464 | 8.89° C | 48% | 1050.2 hPa | 0 mm | - | 158 W/m² | - |
| 1777755154 | 9.44° C | 48% | 1050.2 hPa | 0 mm | - | 162 W/m² | - |
| 1777754852 | 8.89° C | 52% | 1050.2 hPa | 0 mm | - | 149 W/m² | - |
| 1777754549 | 9.44° C | 53% | 1050.2 hPa | 0 mm | - | 152 W/m² | - |
| 1777754247 | 9.44° C | 50% | 1049.8 hPa | 0 mm | - | 185 W/m² | - |
| 1777753944 | 10° C | 48% | 1050.2 hPa | 0 mm | - | 242 W/m² | - |
| 1777753638 | 10° C | 49% | 1050.2 hPa | 0 mm | - | 824 W/m² | - |
| 1777753337 | 9.44° C | 49% | 1050.2 hPa | 0 mm | - | 242 W/m² | - |
| 1777753034 | 9.44° C | 51% | 1050.2 hPa | 0 mm | - | 212 W/m² | - |
| 1777752731 | 9.44° C | 49% | 1050.6 hPa | 0 mm | - | 180 W/m² | - |
| 1777752426 | 9.44° C | 53% | 1050.2 hPa | 0 mm | - | 168 W/m² | - |
| 1777752122 | 10° C | 51% | 1050.2 hPa | 0 mm | - | 308 W/m² | - |
| 1777751820 | 8.89° C | 52% | 1050.6 hPa | 0 mm | - | 755 W/m² | - |
| 1777751512 | 8.89° C | 53% | 1050.6 hPa | 0 mm | - | 132 W/m² | - |
| 1777751208 | 9.44° C | 51% | 1050.6 hPa | 0 mm | - | 119 W/m² | - |
| 1777750904 | 10° C | 50% | 1050.2 hPa | 0 mm | - | 143 W/m² | - |
| 1777750601 | 10° C | 49% | 1050.6 hPa | 0 mm | - | 235 W/m² | - |
| 1777750299 | 10° C | 49% | 1050.6 hPa | 0 mm | - | 216 W/m² | - |
| 1777749993 | 10.56° C | 47% | 1050.6 hPa | 0 mm | - | 244 W/m² | - |
| 1777749692 | 10° C | 48% | 1050.6 hPa | 0 mm | - | 564 W/m² | - |
* Rain latest hour (hover to see other rain measurements)
** Current wind speed in m/s (hover to see current wind gust speed)